Location: Ederheim
(48.8088°N, 10.4658°E)
Time: 07:12:30
(UTC+00:00)

Daily predictions for brighter satellites

Satellite Brightness Start Highest point End
(mag) Time Altitude Azimuth Time Altitude Azimuth Time Altitude Azimuth
ERS-1 Rocket 3.6 20:04:40 10° SE 20:09:24 43° ENE 20:14:10 10° N
Cosmos 1745 Rocket 4.4 20:03:45 10° NNW 20:09:50 67° W 20:15:56 10° S
USA 102 3.4 20:08:43 10° WNW 20:10:47 28° NW 20:17:58 10° NNW
Cosmos 2056 Rocket 3.8 20:06:30 10° S 20:11:42 52° ESE 20:16:57 10° NNE
Cosmos 1140 Rocket 4.0 20:06:46 10° NNW 20:11:54 60° WSW 20:16:59 10° S
Cosmos 2084 3.9 20:10:34 10° S 20:14:01 32° ESE 20:17:30 10° ENE
Cosmos 1455 2.8 20:11:39 10° N 20:15:16 41° ENE 20:18:53 10° SSE
Cosmos 1544 Rocket 3.9 20:12:20 10° N 20:16:34 49° ENE 20:20:46 10° SSE
Cosmos 1953 4.4 20:13:19 10° NNW 20:16:38 26° W 20:19:56 10° SSW
CZ-4B R/B 1.6 20:14:39 10° N 20:17:31 60° WNW 20:20:21 10° SSW
X-37B 1.8 20:16:46 10° SSW 20:18:53 19° SSE 20:21:00 10° ESE
Cosmos 676 Rocket 4.2 20:14:32 10° NNW 20:19:51 66° ENE 20:25:06 10° SSE
Cosmos 1420 Rocket 4.3 20:15:42 10° S 20:20:44 49° ESE 20:25:50 10° NNE
Cosmos 1980 Rocket 4.3 20:19:40 10° N 20:23:25 18° NE 20:27:10 10° ENE
Resurs 01 Rocket 3.1 20:22:06 10° SSW 20:26:11 36° W 20:30:19 10° NNW
Cosmos 1697 Rocket 4.2 20:22:20 10° NNW 20:27:06 27° NE 20:31:50 10° ESE
SPOT 1/Viking Rocket 4.5 20:23:11 10° S 20:28:06 46° W 20:33:04 10° NNW
IRAS Rocket 4.3 20:22:29 10° NNE 20:28:09 89° ESE 20:33:44 10° SSW
USA 32 4.1 20:26:28 10° S 20:31:38 67° E 20:36:50 10° N
Ariane Rocket 4.0 20:32:24 10° S 20:37:15 44° W 20:42:08 10° NNW
Cosmos 1954 Rocket 4.1 20:33:48 10° NNW 20:39:07 83° WSW 20:44:08 11° SSE
Cosmos 1656 4.0 20:36:16 10° NNW 20:41:39 56° ENE 20:46:33 13° SE
CZ-2C R/B 4.0 20:38:48 10° NNE 20:43:18 50° E 20:47:42 10° S
USA 267 3.6 20:37:22 10° ENE 20:43:32 42° SE 20:49:40 10° SSW
Meteor 1-24 Rocket 3.7 20:38:19 10° SSW 20:43:38 86° WNW 20:49:05 10° N
NOSS 2-1 (C) 4.0 20:40:34 10° NW 20:44:58 88° NE 20:50:27 13° SE
Cosmos 724 4.4 20:45:11 10° SSW 20:50:47 53° ESE 20:56:25 10° NE
Cosmos 2315 Rocket 4.4 20:45:50 10° SSW 20:52:09 69° WNW 20:58:27 10° N
Helios 1A Rocket 3.1 20:49:35 11° S 20:53:25 70° WSW 20:57:32 10° NNW
NOSS 2-1 (D) 4.0 20:50:53 10° NW 20:55:20 80° SW 21:00:34 15° SE
Cosmos 1833 Rocket 3.7 20:53:24 14° SSE 20:57:07 27° ESE 21:01:45 10° NE
SL-8 R/B 3.7 20:53:42 10° W 20:58:32 87° S 21:03:23 10° E
ARIANE 5 R/B 2.7 20:55:09 15° SSE 20:58:49 69° ENE 21:03:15 10° N
SPOT 5 3.1 20:58:11 11° S 21:02:28 57° W 21:06:46 10° NNW
ATLAS 5 CENTAUR R/B 4.3 20:52:01 10° NW 21:03:19 36° WSW 21:07:16 10° S
Cosmos 1025 Rocket 4.2 21:00:29 10° SW 21:04:31 41° WNW 21:08:37 10° N
Lacrosse 5 rocket 2.2 21:03:15 10° WNW 21:06:48 35° SW 21:09:19 17° S
Spot 2 Rocket 4.1 21:03:13 10° S 21:08:10 54° W 21:13:11 10° NNW
Cosmos 2074 Rocket 4.0 21:02:43 10° N 21:09:03 85° E 21:14:25 15° S
ASTRO F (AKARI) 4.5 21:08:07 19° SSE 21:10:33 87° E 21:14:07 10° NNW
RESURS DK-1 2.8 21:08:39 10° NNW 21:12:43 53° NE 21:15:36 18° SE
Cosmos 1452 Rocket 3.6 21:08:16 10° S 21:13:20 57° ESE 21:18:30 10° NNE
Tiangong 2.7 21:12:38 10° WSW 21:14:57 19° S 21:15:07 19° S
Cosmos 1271 Rocket 3.8 21:11:22 10° NNW 21:15:09 42° W 21:18:36 12° SSW
ATLAS 2AS CENTAUR R/B 3.0 21:09:23 10° NW 21:16:21 57° WSW 21:21:29 17° SSE
Cosmos 2082 Rocket 3.8 21:15:47 14° SE 21:17:56 17° E 21:21:31 10° ENE
USA 234 3.4 21:12:17 10° ESE 21:18:51 77° NNE 21:25:25 10° NW
Cosmos 1607 4.4 21:19:18 10° SW 21:25:30 65° NW 21:31:40 10° NE
SAR-Lupe-1 4.3 21:22:11 10° NNE 21:25:41 50° E 21:27:32 24° SSE
Cosmos 1110 Rocket 4.3 21:23:04 17° S 21:26:50 48° ESE 21:31:55 10° NNE
Nadezhda 1 Rocket 4.0 21:22:55 16° S 21:27:52 67° E 21:33:54 10° NNE
Lacrosse 5 2.4 21:24:26 10° WNW 21:29:20 47° SW 21:32:24 21° SSE
Cosmos 1536 Rocket 3.9 21:26:38 11° SSW 21:30:48 64° WNW 21:35:08 10° N
Cosmos 2154 Rocket 4.0 21:26:13 10° N 21:32:30 89° E 21:37:10 19° S
USA 276 1.8 21:31:46 10° WSW 21:34:44 66° SSE 21:37:43 10° ENE
Cosmos 1610 Rocket 4.5 21:30:55 10° N 21:37:09 87° E 21:41:43 20° S
Cosmos 2228 3.1 21:33:14 10° NNW 21:37:28 73° W 21:40:08 22° S
Terra 2.8 21:33:41 13° SSW 21:37:34 41° W 21:42:04 10° NNW
Cosmos 1606 Rocket 3.5 21:33:25 10° N 21:37:45 75° E 21:40:15 25° SSE
Cosmos 2344 4.3 21:29:31 10° NW 21:38:12 77° NE 21:49:16 13° SE
Cosmos 1825 4.1 21:44:54 14° ESE 21:45:53 15° E 21:48:09 10° NE
COSMOS 2406 3.7 21:49:46 22° SSE 21:53:01 44° ESE 21:58:27 10° NE
Cosmos 2084 Rocket 4.2 21:49:31 10° NNW 21:53:14 43° NE 21:56:07 16° ESE
X-37B 1.5 21:51:19 10° WSW 21:53:00 27° SW 21:53:00 27° SW
ERS-2 4.5 21:54:40 10° ENE 21:55:33 11° E 21:56:00 11° E
Cosmos 2369 4.0 21:51:47 10° NNW 21:57:31 63° ENE 22:01:22 21° SE
SL-16 R/B 4.2 21:55:00 10° N 21:59:27 23° NE 22:03:52 10° E
Cosmos 1726 Rocket 3.5 21:58:38 10° NNW 22:02:58 79° W 22:05:09 28° S
Cosmos 968 Rocket 3.7 21:59:21 10° NNW 22:04:31 64° ENE 22:07:37 24° SE
SL-8 Rocket 4.1 21:58:56 10° N 22:05:12 65° ENE 22:09:01 24° SSE
Cosmos 1980 Rocket 2.4 22:02:51 10° NNW 22:08:34 67° ENE 22:12:13 23° SE
Spot 4 3.9 22:06:05 27° SSE 22:08:39 70° ENE 22:13:26 10° N
Meteor 1-11 4.3 22:05:48 25° S 22:09:05 64° E 22:14:37 10° NNE
Cosmos 1697 Rocket 2.8 22:05:57 10° NNW 22:11:32 66° WSW 22:14:40 26° S
ALOS 2 3.1 22:11:52 26° SE 22:14:04 49° ENE 22:18:19 10° N
Cosmos 1328 4.2 22:12:23 23° SSW 22:14:43 61° WNW 22:18:43 10° N
Cosmos 1892 2.8 22:13:38 36° SSE 22:14:52 56° E 22:18:33 10° NNE
Cosmos 2218 Rocket 4.2 22:08:43 10° N 22:15:07 66° ENE 22:19:02 25° SSE
Cosmos 967 Rocket 4.5 22:13:03 14° SSW 22:18:40 74° ESE 22:25:08 10° NE
Cosmos 192 4.3 22:16:35 28° S 22:19:09 66° ESE 22:24:01 10° NNE
Cosmos 2366 rocket 4.1 22:14:04 10° N 22:20:23 71° ENE 22:24:11 26° SSE
Cosmos 2341 Rocket 4.0 22:15:24 10° N 22:21:46 83° W 22:25:37 26° S
In-Cosmos 22 Rocket 4.4 22:21:57 27° SSE 22:24:53 58° E 22:30:16 10° NNE
Cosmos 1633 4.2 22:24:46 19° ESE 22:25:21 20° E 22:27:56 10° NE
ASTEX 1 3.9 22:21:39 10° N 22:26:35 57° W 22:29:50 21° SSW
USA 267 3.4 22:20:19 10° NE 22:26:52 76° NNW 22:33:23 10° WSW
ADEOS Rocket 3.6 22:23:16 23° SSE 22:28:03 72° ENE 22:35:41 10° NNW
Cosmos 2058 Rocket 3.2 22:29:51 10° NNW 22:34:13 64° W 22:36:09 32° SSW
Cosmos 1892 Rocket 4.1 22:36:30 23° SW 22:39:02 52° WNW 22:43:21 10° N
Cosmos 2322 Rocket 3.8 22:34:37 10° NNW 22:39:34 30° NE 22:44:30 10° ESE
Cosmos 1833 Rocket 3.3 22:35:11 10° SW 22:40:42 56° WNW 22:46:15 10° NNE
SL-8 R/B 3.9 22:36:15 10° W 22:40:55 51° SSW 22:42:54 31° SE
Cosmos 2278 3.8 22:36:54 10° NNW 22:42:39 73° ENE 22:46:07 25° SE
H-2A R/B 3.4 22:39:22 10° NNE 22:43:35 76° ESE 22:45:11 37° S
Cosmos 1959 Rocket 4.4 22:39:56 10° N 22:46:03 81° W 22:49:27 28° S
Cosmos 1408 3.2 22:45:59 30° SW 22:47:14 46° WNW 22:50:35 10° N
GP-B 4.1 22:43:19 10° NNW 22:47:27 39° W 22:49:54 21° SW
Cosmos 1992 Rocket 4.4 22:46:40 31° SSE 22:48:48 50° ESE 22:53:51 10° NNE
Cosmos 807 4.4 22:46:33 10° N 22:50:02 65° E 22:50:35 52° SE
RESURS DK-1 4.2 22:47:29 10° WNW 22:50:20 18° WSW 22:51:26 17° SW
ATLAS 5 CENTAUR R/B 2.6 22:50:40 23° ESE 22:50:40 23° ESE 22:53:46 10° ENE
TIMED 4.4 22:50:55 36° S 22:52:37 76° ESE 22:57:00 10° NNE
Cosmos-2242 3.6 22:50:29 10° N 22:54:37 48° ENE 22:56:21 30° SE
Cosmos 1626 Rocket 3.4 22:54:02 38° S 22:55:40 83° E 23:00:02 10° N
Cosmos 2181 Rocket 4.0 22:52:47 25° SSW 22:56:31 76° W 23:02:46 10° N
Cosmos 1867 3.5 22:54:14 10° NW 22:59:43 77° SW 23:02:32 29° SSE
Cosmos 2082 Rocket 2.2 22:57:35 23° SSW 23:01:16 85° WNW 23:07:01 10° NNE
USA 234 3.7 22:59:13 27° S 23:02:11 42° SW 23:08:21 10° WNW
Okean 1-7 Rocket 3.8 23:06:13 32° SSW 23:08:10 65° WNW 23:12:39 10° N
Cosmos 1503 Rocket 4.3 23:03:24 10° NNW 23:08:42 63° ENE 23:11:49 24° SE
USA 276 2.3 23:07:27 10° W 23:10:27 66° N 23:13:27 10° E
Cosmos 2058 3.9 23:14:21 28° SE 23:15:43 35° E 23:19:34 10° NNE
FALCON 9 DEB 3.8 23:12:43 10° WNW 23:15:56 52° NNE 23:19:08 10° E
Cosmos 1821 Rocket 4.0 23:11:16 10° N 23:17:35 90° WNW 23:20:59 29° S
Meteor 2-20 4.4 23:15:05 30° S 23:18:20 79° E 23:24:27 10° NNE
Cosmos 2360 Rocket 3.5 23:14:40 10° NNW 23:19:55 37° NE 23:25:09 10° ESE
Cosmos 1825 2.9 23:19:32 30° SW 23:20:51 43° WNW 23:24:28 10° N
SJ 16-02 2.0 23:18:30 10° NNW 23:22:50 49° ENE 23:25:18 23° SE
BREEZE-M DEB (TANK) 4.1 23:20:09 10° W 23:23:52 83° SSW 23:40:14 10° ESE
Cosmos 1869 4.3 23:20:58 10° NNW 23:24:30 35° W 23:25:34 29° SW
ERS-2 2.2 23:25:45 10° N 23:29:19 65° WNW 23:30:22 41° SW
Cosmos 2084 Rocket 4.4 23:29:09 10° WNW 23:32:29 27° WSW 23:32:33 27° WSW
Nadezhda 3 Rocket 3.9 23:30:29 29° S 23:33:49 86° E 23:40:00 10° N
Cosmos 1606 2.6 23:30:19 10° N 23:34:10 89° ENE 23:35:18 45° S
COSMOS 2406 4.4 23:32:02 10° WSW 23:37:24 38° NW 23:42:47 10° NNE
PSLV R/B 3.7 23:33:47 10° NNE 23:38:36 89° WNW 23:40:41 34° SSW
Cosmos 1932 4.4 23:37:53 22° SW 23:42:07 86° NW 23:48:31 10° NE
Meteor 2-2 Rocket 4.4 23:36:37 10° N 23:42:38 77° ENE 23:46:14 26° SSE
Cosmos 1758 Rocket 3.7 23:41:08 35° SSW 23:42:50 64° WNW 23:47:11 10° N
Nimbus 7 Rocket 4.4 23:37:50 10° NNE 23:43:47 87° WNW 23:47:08 28° SSW
SL-16 R/B 2.1 23:38:34 10° NNW 23:44:17 85° WSW 23:47:37 26° SSE
Meteor 2-20 Rocket 4.4 23:41:09 29° S 23:44:30 89° E 23:50:39 10° N
ALOS 2 4.3 23:49:16 17° WSW 23:50:41 20° W 23:53:55 10° NW
Cosmos 2221 3.2 23:47:01 10° N 23:51:14 48° ENE 23:53:34 24° SE
Cosmos 1980 Rocket 3.6 23:47:43 10° NW 23:52:02 23° WSW 23:53:57 19° SW
